(126228) = 2002 AO53

Discovered at Socorro on 2002-01-09 by LINEAR.

Orbit

Orbit type: Main Belt

Note: WebGL enabled browser required.

epoch2023-09-13.0
epoch JD2460200.5
perihelion date2019-06-20.31976
perihelion JD2458654.81976
argument of perihelion (°)312.11612
ascending node (°)135.98383
inclination (°)12.50541
eccentricity0.1240002
perihelion distance (AU)2.3703790
Tisserand w.r.t. Jupiter3.3
ΔV w.r.t. Earth (km/sec)10.4
semimajor axis (AU)2.7059129
mean anomaly (°)342.25735
mean daily motion (°/day)0.22142830
aphelion distance (AU)3.041
period (years)4.45
P-vector [x]0.02092753
P-vector [y]0.96925729
P-vector [z]0.24515778
Q-vector [x]-0.98839463
Q-vector [y]-0.01684497
Q-vector [z]0.15097120
absolute magnitude16.34
phase slope0.15
uncertainty0
referenceMPEC 2024-B28
observations used460
oppositions15
arc length (days)8043
first opposition used2002
last opposition used2024
residual rms (arc-secs)0.82
perturbers coarse indicatorM-v
perturbers precise indicator003Ek
first observation date used2002-01-09.0
last observation date used2024-01-17.0
computer nameMPCLINUX
JD of orbit computation2456552.272407
perihelion JD uncertainty (days)1.7314E-04
argument of perihelion uncertainty (°)4.6145E-05
ascending node uncertainty (°)2.9307E-05
inclination uncertainty (°)9.1650E-06
eccentricity uncertainty 6.9150E-08
perihelion distance uncertainty (AU)1.9673E-07
Minimum Orbit Intersection Distances (in AU)
for orbit epoch: 2460200.5, reference: E2024-B28
Mercury2.07139
Venus1.66572
Earth1.40462
Mars0.79456
Jupiter2.14746
Saturn6.7047
Uranus15.8097
Neptune27.1991

Observations

473 total observations over interval: 2002 01 09.34186 – 2024 01 17.411823
These data are available for download (format description).

Date (UT) J2000 RA J2000 Dec Magn Location Ref
2002 01 09.34186 09 06 41.56 +12 22 12.4 19.6   704 – Lincoln Laboratory ETS, New Mexico MPS 47369
2002 01 09.35685 09 06 40.95 +12 22 18.7 19.6   704 – Lincoln Laboratory ETS, New Mexico MPS 47369
2002 01 09.37189 09 06 40.40 +12 22 24.3 19.5   704 – Lincoln Laboratory ETS, New Mexico MPS 47369
2002 01 09.38693 09 06 39.85 +12 22 31.8 19.4   704 – Lincoln Laboratory ETS, New Mexico MPS 47369
2002 01 13.37701 09 04 05.16 +12 54 28.9 19.1   704 – Lincoln Laboratory ETS, New Mexico MPS 47369
2002 01 13.39221 09 04 04.48 +12 54 36.4 19.0   704 – Lincoln Laboratory ETS, New Mexico MPS 47369
2002 01 13.40741 09 04 03.84 +12 54 44.3 19.5   704 – Lincoln Laboratory ETS, New Mexico MPS 47369
2002 01 13.43780 09 04 02.53 +12 54 59.3 19.1   704 – Lincoln Laboratory ETS, New Mexico MPS 47369
2002 01 22.23587 08 57 19.76 +14 12 59.9 19.2   704 – Lincoln Laboratory ETS, New Mexico MPS 55273
2002 01 22.25299 08 57 18.89 +14 13 09.7 19.6   704 – Lincoln Laboratory ETS, New Mexico MPS 55273
2002 01 22.28282 08 57 17.34 +14 13 26.2 19.3   704 – Lincoln Laboratory ETS, New Mexico MPS 55273
2002 01 22.29775 08 57 16.60 +14 13 35.2 19.7   704 – Lincoln Laboratory ETS, New Mexico MPS 55273
2002 02 03.43052 08 46 52.08 +16 09 40.6 20.2   608 – Haleakala-AMOS MPS 49900
2002 02 03.44177 08 46 51.50 +16 09 47.6 19.8   608 – Haleakala-AMOS MPS 49900
2002 02 03.45254 08 46 50.91 +16 09 53.2 19.9   608 – Haleakala-AMOS MPS 49900
2002 02 05.29117 08 45 16.52 +16 27 25.3 19.9   644 – Palomar Mountain/NEAT MPS 49900
2002 02 05.31219 08 45 15.42 +16 27 37.4 20.5   644 – Palomar Mountain/NEAT MPS 49900
2002 02 05.33315 08 45 14.30 +16 27 49.4 19.9   644 – Palomar Mountain/NEAT MPS 49900
2002 02 07.30786 08 43 34.45 +16 46 29.8 19.1   704 – Lincoln Laboratory ETS, New Mexico MPS 49900
2002 02 07.32383 08 43 33.67 +16 46 39.2 20.1   704 – Lincoln Laboratory ETS, New Mexico MPS 49900
2002 02 07.35302 08 43 32.14 +16 46 56.0 20.1   704 – Lincoln Laboratory ETS, New Mexico MPS 49900
2002 02 07.36749 08 43 31.34 +16 47 04.0 19.4   704 – Lincoln Laboratory ETS, New Mexico MPS 49900
2002 02 11.23360 08 40 23.09 +17 22 53.6 19.2   704 – Lincoln Laboratory ETS, New Mexico MPS 49900
2002 02 11.24772 08 40 22.38 +17 23 01.8 19.6   704 – Lincoln Laboratory ETS, New Mexico MPS 49900
2002 02 11.26184 08 40 21.70 +17 23 09.5 19.5   704 – Lincoln Laboratory ETS, New Mexico MPS 49900
2002 02 11.27596 08 40 20.99 +17 23 16.8 19.5   704 – Lincoln Laboratory ETS, New Mexico MPS 49900
2002 02 11.29008 08 40 20.27 +17 23 24.1 19.4   704 – Lincoln Laboratory ETS, New Mexico MPS 49900
2002 02 20.17643 08 34 02.04 +18 39 53.2 19.0   704 – Lincoln Laboratory ETS, New Mexico MPS 55273
2002 02 20.19007 08 34 01.51 +18 39 59.8 19.6   704 – Lincoln Laboratory ETS, New Mexico MPS 55273
2002 02 20.21745 08 34 00.40 +18 40 13.9 19.2   704 – Lincoln Laboratory ETS, New Mexico MPS 55273
2002 02 20.23111 08 33 59.89 +18 40 20.7 19.4   704 – Lincoln Laboratory ETS, New Mexico MPS 55273
2002 03 04.13276 08 28 25.95 +20 05 05.2 20.4 V 291 – LPL/Spacewatch II MPS 55273
2002 03 04.15398 08 28 25.54 +20 05 12.9 20.5 V 291 – LPL/Spacewatch II MPS 55273
2002 03 04.17567 08 28 25.09 +20 05 21.3 20.3 V 291 – LPL/Spacewatch II MPS 55273
2002 03 14.10982 08 26 49.45 +20 58 08.5 19.9   704 – Lincoln Laboratory ETS, New Mexico MPS 52477
2002 03 14.12237 08 26 49.33 +20 58 12.2 20.3   704 – Lincoln Laboratory ETS, New Mexico MPS 52477
2002 03 14.13493 08 26 49.48 +20 58 16.3 20.1   704 – Lincoln Laboratory ETS, New Mexico MPS 52477
2002 03 14.14756 08 26 49.38 +20 58 20.7 20.6   704 – Lincoln Laboratory ETS, New Mexico MPS 52477
2002 03 14.16030 08 26 49.37 +20 58 23.0 20.3   704 – Lincoln Laboratory ETS, New Mexico MPS 52477
2003 05 26.34105 15 37 03.09 -00 29 45.8 21.2 V 691 – Steward Observatory, Kitt Peak-Spacewatch MPS 80037
2003 05 26.36803 15 37 01.71 -00 29 44.6 21.4 V 691 – Steward Observatory, Kitt Peak-Spacewatch MPS 80037
2003 05 26.39528 15 37 00.29 -00 29 43.2 21.4 V 691 – Steward Observatory, Kitt Peak-Spacewatch MPS 80037
2003 05 28.29692 15 35 27.06 -00 28 29.6 21.0 V 691 – Steward Observatory, Kitt Peak-Spacewatch MPS 80037
2003 05 28.32305 15 35 25.73 -00 28 28.7 21.6 V 691 – Steward Observatory, Kitt Peak-Spacewatch MPS 80037
2003 05 28.35140 15 35 24.32 -00 28 27.9 21.4 V 691 – Steward Observatory, Kitt Peak-Spacewatch MPS 80037
2004 08 21.53268 20 51 32.86 -17 46 59.7 20.4 R E12 – Siding Spring Survey MPS 112163
2004 08 21.54792 20 51 32.01 -17 47 06.8 20.4 R E12 – Siding Spring Survey MPS 112163
2004 08 21.56307 20 51 31.41 -17 47 12.2 20.1 R E12 – Siding Spring Survey MPS 112163
2004 08 21.57816 20 51 30.68 -17 47 19.0 19.9 R E12 – Siding Spring Survey MPS 112163
2005 11 12.39242 04 47 01.82 +02 25 16.4 19.7 V 703 – Catalina Sky Survey MPS 149405
2005 11 12.40003 04 47 01.32 +02 25 14.9 20.0 V 703 – Catalina Sky Survey MPS 149405
2005 11 12.40762 04 47 01.14 +02 25 13.0 20.0 V 703 – Catalina Sky Survey MPS 149405
2005 11 12.41524 04 47 00.81 +02 25 13.2 19.4 V 703 – Catalina Sky Survey MPS 149405
2005 11 22.34612 04 39 04.39 +02 01 02.4 19.4 V 703 – Catalina Sky Survey MPS 151974
2005 11 22.35144 04 39 03.99 +02 01 02.1 19.6 V 703 – Catalina Sky Survey MPS 151974
2005 11 22.35677 04 39 03.85 +02 01 01.9 19.5 V 703 – Catalina Sky Survey MPS 151974
2005 11 22.36208 04 39 03.45 +02 01 00.5 19.8 V 703 – Catalina Sky Survey MPS 151974
2005 11 27.26219 04 34 39.71 +01 56 09.7 19.0 R 699 – Lowell Observatory-LONEOS MPS 151974
2005 11 27.29506 04 34 37.88 +01 56 08.1   699 – Lowell Observatory-LONEOS MPS 151974
2005 11 27.32796 04 34 35.95 +01 56 08.4   699 – Lowell Observatory-LONEOS MPS 151974
2005 11 27.36083 04 34 34.14 +01 56 07.0   699 – Lowell Observatory-LONEOS MPS 151974
2005 11 28.30869 04 33 41.98 +01 55 48.1 18.9 R 644 – Palomar Mountain/NEAT MPS 151974
2005 11 28.33260 04 33 40.62 +01 55 48.0 19.0 R 644 – Palomar Mountain/NEAT MPS 151974
2005 11 28.38027 04 33 37.86 +01 55 47.3 19.2 R 644 – Palomar Mountain/NEAT MPS 151974
2005 11 29.23742 04 32 50.64 +01 55 41.3 19.6 V 703 – Catalina Sky Survey MPS 151974
2005 11 29.24603 04 32 50.10 +01 55 40.9 19.2 V 703 – Catalina Sky Survey MPS 151974
2005 11 29.25461 04 32 49.63 +01 55 42.4 19.5 V 703 – Catalina Sky Survey MPS 151974
2005 11 29.26323 04 32 49.16 +01 55 42.1 19.2 V 703 – Catalina Sky Survey MPS 151974
2005 11 29.38003 04 32 42.47 +01 55 41.4 19.5 R 644 – Palomar Mountain/NEAT MPS 153594
2005 11 29.40072 04 32 41.26 +01 55 40.9 19.6 R 644 – Palomar Mountain/NEAT MPS 153594
2005 11 29.42457 04 32 39.90 +01 55 41.2 19.1 R 644 – Palomar Mountain/NEAT MPS 153594
2005 12 28.20637 04 09 51.37 +03 29 30.6 18.9 V 703 – Catalina Sky Survey MPS 156497
2005 12 28.21171 04 09 51.26 +03 29 33.1 19.3 V 703 – Catalina Sky Survey MPS 156497
2005 12 28.21707 04 09 51.01 +03 29 34.8 19.4 V 703 – Catalina Sky Survey MPS 156497
2005 12 28.22244 04 09 50.79 +03 29 39.0 20.1 V 703 – Catalina Sky Survey MPS 156497
2005 12 29.23659 04 09 20.19 +03 35 58.9 20.1 R 644 – Palomar Mountain/NEAT MPS 156497
2005 12 29.25831 04 09 19.51 +03 36 07.6 19.3 R 644 – Palomar Mountain/NEAT MPS 156497
2005 12 29.28018 04 09 18.86 +03 36 16.4 19.3 R 644 – Palomar Mountain/NEAT MPS 156497
2007 03 14.291696 13 29 30.442 +06 57 36.72 20.44 V 645 – Apache Point-Sloan Digital Sky Survey MPS 389930
2007 03 14.295168 13 29 30.324 +06 57 38.64 21.31   645 – Apache Point-Sloan Digital Sky Survey MPS 389930
2009 09 16.39985 00 59 14.82 -09 39 16.0 20.3 V 703 – Catalina Sky Survey MPS 295554
2009 09 16.40823 00 59 14.53 -09 39 23.0 20.1 V 703 – Catalina Sky Survey MPS 295554
2009 09 16.41663 00 59 14.24 -09 39 26.0 20.3 V 703 – Catalina Sky Survey MPS 295554
2009 09 16.42512 00 59 13.95 -09 39 30.0 20.1 V 703 – Catalina Sky Survey MPS 295554
2011 01 26.25751 09 56 49.56 +13 25 06.6   691 – Steward Observatory, Kitt Peak-Spacewatch MPS 368144
2011 01 26.26778 09 56 49.16 +13 25 12.5   691 – Steward Observatory, Kitt Peak-Spacewatch MPS 368144
2011 01 26.27806 09 56 48.72 +13 25 18.3   691 – Steward Observatory, Kitt Peak-Spacewatch MPS 368144
2011 01 26.42133 09 56 42.75 +13 26 40.8 19.7 V 703 – Catalina Sky Survey MPS 368144
2011 01 26.42823 09 56 42.54 +13 26 46.0 19.9 V 703 – Catalina Sky Survey MPS 368144
